Flag for Russia Weather past 2 weeks in Saint-Petersburg, Russia

Now
34 °F

Mostly cloudy.


Feels Like: 26 °F
Forecast: 27 / 31 °F
Wind: 10 mph from North

Location: St. Petersburg

Current Time: Oct 21, 2014 at 3:04:43 PM

Latest Report: Oct 21, 2014 at 2:30 PM


Visibility: N/A

Pressure: 29.74 "Hg

Humidity: 75%

Dew point: 27 °F

Location of Saint-PetersburgLocation

Historic Weather in Saint-Petersburg — Graph

°F

Saint-Petersburg temperature yesterday

Maximum temperature yesterday: 37 °F (at 2:00 PM)
Minimum temperature yesterday: 34 °F (at 12:00 AM)
Average temperature yesterday: 35 °F

Past Weeks' High & Low Weather Summary

 TemperatureHumidityPressure
High57 °F (Oct 11, 2:00 PM)100% (Oct 8, 5:30 AM)30.77 "Hg (Oct 8, 5:30 AM)
Low25 °F (Oct 19, 12:00 AM)45% (Oct 16, 2:00 PM)29.33 "Hg (Oct 20, 9:00 AM)
Average41 °F83%30.00 "Hg
* Reported Oct 6 2:00 PM — Oct 21 2:00 PM, Saint-Petersburg, Weather by CustomWeather, © 2014

Note: Actual official high and low records may vary slightly from our data, if they occured in-between our weather recording intervals... More about our weather records

Advertising

Saint-Petersburg weather history for previous 24 hours

 ConditionsComfort  
Time TempWeatherWind HumidityBarometerVisibility
2:00 PM
Oct 21
34 °FCloudy.10 mph75%29.74 "HgN/A
1:30 PM34 °FSnow flurries. Cloudy.10 mph81%29.74 "HgN/A
1:00 PM34 °FSnow flurries. Cloudy.10 mph81%29.71 "HgN/A
12:30 PM34 °FSnow flurries. Cloudy.8 mph81%29.71 "HgN/A
12:00 PM34 °FCloudy.10 mph87%29.68 "HgN/A
11:30 AM34 °FSnow. Mostly cloudy.8 mph93%29.68 "Hg1 mi
11:00 AM34 °FLight snow. More clouds than sun.10 mph87%29.65 "HgN/A
10:30 AM34 °FOvercast.10 mph87%29.65 "HgN/A
10:00 AM34 °FOvercast.10 mph81%29.62 "HgN/A
9:30 AM36 °FOvercast.10 mph75%29.62 "HgN/A
9:00 AM36 °FOvercast.10 mph75%29.62 "HgN/A
8:30 AM36 °FOvercast.8 mph75%29.59 "HgN/A
8:00 AM36 °FOvercast.10 mph75%29.59 "HgN/A
7:30 AM36 °FOvercast.10 mph75%29.59 "HgN/A
7:00 AM36 °FOvercast.10 mph75%29.56 "HgN/A
6:30 AM36 °FOvercast.13 mph81%29.56 "HgN/A
6:00 AM36 °FOvercast.10 mph81%29.53 "HgN/A
5:30 AM36 °FOvercast.10 mph81%29.53 "HgN/A
5:00 AM36 °FOvercast.13 mph87%29.53 "HgN/A
4:30 AM36 °FOvercast.13 mph87%29.50 "HgN/A
4:00 AM36 °FMostly cloudy.13 mph87%29.50 "HgN/A
3:30 AM36 °FMostly cloudy.8 mph93%29.50 "HgN/A
3:00 AM36 °FMostly cloudy.8 mph93%29.47 "HgN/A
2:30 AM36 °FMostly cloudy.10 mph93%29.47 "HgN/A
2:00 AM36 °FMostly cloudy.8 mph93%29.47 "HgN/A
1:30 AM37 °FMostly cloudy.8 mph87%29.45 "HgN/A
1:00 AM36 °FMostly cloudy.8 mph93%29.45 "HgN/A
12:30 AM36 °FMostly cloudy.6 mph93%29.45 "HgN/A
12:00 AM36 °FMostly cloudy.8 mph93%29.45 "HgN/A
11:30 PM
Oct 20
37 °FMostly cloudy.8 mph87%29.42 "HgN/A
11:00 PM37 °FLow clouds.8 mph93%29.42 "HgN/A
10:30 PM36 °FDrizzle. Low clouds.3 mph100%29.42 "Hg3 mi
10:00 PM36 °FLow clouds.3 mph100%29.42 "HgN/A
9:30 PM36 °FLow clouds.1 mph100%29.39 "HgN/A
9:00 PM36 °FLow clouds.1 mph100%29.39 "HgN/A
8:30 PM36 °FMostly cloudy.3 mph100%29.39 "HgN/A
8:00 PM37 °FMostly cloudy.3 mph93%29.39 "HgN/A
7:30 PM36 °FFog.6 mph100%29.39 "Hg2 mi
7:00 PM37 °FFog.3 mph93%29.39 "Hg2 mi
6:30 PM37 °FFog.6 mph93%29.36 "Hg2 mi
6:00 PM37 °FFog.6 mph93%29.36 "Hg2 mi
5:30 PM37 °FFog.6 mph93%29.36 "Hg1 mi
5:00 PM37 °FFog.6 mph100%29.36 "Hg3 mi
4:30 PM37 °FFog.6 mph100%29.33 "Hg2 mi
4:00 PM37 °FFog.6 mph100%29.33 "Hg2 mi
3:30 PM37 °FFog.3 mph100%29.33 "Hg2 mi
3:00 PM37 °FFog.3 mph100%29.33 "Hg2 mi
Weather by CustomWeather, © 2014

See weather overviewHow to use our weather pages